Regional Weather Roundup
Issued by NWS

Home | Current Version | Previous Version | Text Only | Print | Product List | Glossary On
Versions: 1 2 3 4 5 6 7 8 9 10 11 12 13 14 15 16 17 18 19 20 21 22 23 24 25 26 27 28 29 30 31 32 33 34 35 36 37 38 39 40 41 42 43 44 45 46 47 48 49 50
000
ASUS45 KABQ 280301
RWRNM
NEW MEXICO REGIONAL WEATHER ROUNDUP
NATIONAL WEATHER SERVICE ALBUQUERQUE NM
900 PM MDT SAT AUG 27 2016

NOTE: "FAIR" MEANS FEW OR NO CLOUDS BELOW 12,000 FEET AGL WITH NO
       SIGNIFICANT WEATHER OR OBSTRUCTIONS TO VISION.

      THIS PRODUCT IS RELEASED AS TWO VERSIONS.  ONE VERSION NEAR
      THE TOP OF THE HOUR CONTAINING PRELIMINARY DATA FROM ALBUQUERQUE
      AND OTHER STATIONS.  A FINAL VERSION WITH ADDITIONAL DATA IS
      ISSUED ABOUT 10 MINUTES AFTER THE HOUR.

NMZ501-503-504-510>518-280400-
NORTHWEST PLATEAU/NORTHCENTRAL MOUNTAINS

CITY           SKY/WX    TMP DP  RH WIND       PRES   REMARKS
FARMINGTON     FAIR      60  53  77 E8        30.20R
SANTA FE       FAIR      59  48  67 N12       30.24F
TAOS           CLOUDY    55  45  67 SW5       30.33F
ANGEL FIRE     FAIR      54  41  62 SW10      30.39R

$$
NMZ402-403-502-505>509-280400-
WESTCENTRAL MOUNTAINS/SOUTHWEST MOUNTAINS

CITY           SKY/WX    TMP DP  RH WIND       PRES   REMARKS
GALLUP         FAIR      58  49  72 S3        30.24R
GRANTS         FAIR      57  44  62 W5        30.28R
SILVER CITY    FAIR      64  56  76 N7        30.16F

$$
NMZ407-409-411-412-280400-
SOUTHERN DESERTS

CITY           SKY/WX    TMP DP  RH WIND       PRES   REMARKS
DEMING         FAIR      76  52  43 E10       30.11R THUNDER
LAS CRUCES     LGT RAIN  72  59  65 W5G21     30.16R
HOLLOMAN AFB   MOCLDY    68  58  70 NE14      30.10F
ALAMOGORDO     LGT RAIN  66  59  77 E23G32    30.13F
T OR C         FAIR      69  52  54 NW10      30.12R

$$
NMZ519>523-280400-
CENTRAL VALLEYS/CENTRAL HIGHLANDS

CITY           SKY/WX    TMP DP  RH WIND       PRES   REMARKS
ALBUQUERQUE    MOCLDY    67  50  54 N7        30.19S
DOUBLE EAGLE   CLEAR     57  54  88 VRB7      30.22R
MORIARTY ARPT  MOCLDY    58  51  78 N5        30.26R
CLINES CORNERS NOT AVBL
BELEN          FAIR      64  52  67 NE5       30.19R
SOCORRO        FAIR      68  48  48 CALM      30.17R

$$
NMZ524>526-539-540-280400-
SOUTHCENTRAL MOUNTAINS

CITY           SKY/WX    TMP DP  RH WIND       PRES   REMARKS
RUIDOSO        NOT AVBL

$$
NMZ527>531-280400-
NORTHEAST HIGHLANDS/NORTHEAST PLAINS

CITY           SKY/WX    TMP DP  RH WIND       PRES   REMARKS
LAS VEGAS      MOCLDY    58  47  66 N8        30.27R
RATON          FAIR      65  47  52 NW7       30.18R
CLAYTON        TSTM      67  57  70 SW21G37   30.15R

$$
NMZ532>537-280400-
EASTCENTRAL PLAINS

CITY           SKY/WX    TMP DP  RH WIND       PRES   REMARKS
TUCUMCARI      CLOUDY    78  59  51 S17G25    30.07R
CANNON AFB     CLOUDY    71  55  58 W23       30.12R THUNDER
CLOVIS AIRPORT FAIR      72  57  60 SE10      30.10R

$$
NMZ028-029-538-280400-
SOUTHEAST PLAINS

CITY           SKY/WX    TMP DP  RH WIND       PRES   REMARKS
ROSWELL        FAIR      79  58  48 W7        30.06R
ARTESIA        FAIR      75  64  69 S8        30.05R
CARLSBAD       FAIR      74  68  81 SW6       30.02R
HOBBS          FAIR      73  63  68 SE7       30.09R


$$



USA.gov is the U.S. government's official web portal to all federal, state and local government web resources and services.